Regional Weather Roundup
Issued by NWS

Home | Current Version | Previous Version | Graphics & Text | Print | Product List | Glossary On
Versions: 1 2 3 4 5 6 7 8 9 10 11 12 13 14 15 16 17 18 19 20 21 22 23 24 25 26 27 28 29 30 31 32 33 34 35 36 37 38 39 40 41 42 43 44 45 46 47 48 49 50
000
ASUS45 KSLC 020910
RWRUT

UTAH REGIONAL WEATHER ROUNDUP
NATIONAL WEATHER SERVICE SALT LAKE CITY UT
300 AM MDT THU JUL 02 2015

UTZ001>011-023>025-021000-

NORTHERN UTAH

CITY           SKY/WX    TMP DP  RH WIND       PRES   REMARKS
HILL AFB       CLOUDY    74  48  39 E15       30.07S
LOGAN          CLEAR     64  52  64 N5        30.05S
OGDEN          MOCLDY    74  49  41 S9        30.03F
PROVO AIRPORT  CLOUDY    70  54  56 S5        30.06S
SALT LAKE CITY CLOUDY    78  51  38 S6        30.02S
VERNAL         MOCLDY    74  44  34 S3        30.08S
WENDOVER       PTCLDY    86  45  23 NW15      30.06R
WEST JORDAN    CLEAR     75  48  38 CALM      30.06S

$$

UTZ012>022-026-027-021000-

SOUTHERN/CENTRAL UTAH

CITY           SKY/WX    TMP DP  RH WIND       PRES   REMARKS
BRYCE CANYON   CLOUDY    61  48  62 SW6       30.33F
CEDAR CITY     CLOUDY    75  50  41 SW15      30.19R
MILFORD        CLOUDY    78  47  33 S12       30.09R
MOAB/CYNLANDS  LGT RAIN  75  58  55 W3        29.97S
PRICE          MOCLDY    72  41  32 CALM      30.13F
ST GEORGE      CLOUDY    81  64  57 N7        29.99F
KANAB          CLOUDY    75  57  53 NE9       30.16R

$$

REGIONAL REPORTS     COLORADO/ARIZONA

CITY           SKY/WX    TMP DP  RH WIND       PRES   REMARKS
CRAIG, CO      PTCLDY    54  47  77 SW3       30.17S
GRAND JUNCTION MOCLDY    74  50  42 E3        30.02S
RIFLE          MOCLDY    65  49  56 E6        30.12S
MONTROSE       CLOUDY    75  49  39 S8        30.12F
CORTEZ         CLOUDY    76  48  37 NW3       30.19R
PAGE, AZ       CLOUDY    85  47  26 S12G20    30.04S
GRAND CANYON   CLOUDY    63  58  83 SE5       30.29S
KINGMAN        CLOUDY    78  58  49 S5        30.05S
FLAGSTAFF      CLOUDY    59  58  96 CALM      30.32F

$$

REGIONAL REPORTS    NEVADA/IDAHO/WYOMING

CITY           SKY/WX    TMP DP  RH WIND       PRES   REMARKS
LAS VEGAS, NV  CLOUDY    91  55  29 S10G18    29.88R
ELY            CLOUDY    66  53  63 CALM      30.30F
ELKO           PTCLDY    72  51  47 NW8       30.16S
POCATELLO, ID  CLEAR     71  52  50 SW14      30.05R
BURLEY         CLEAR     69  47  45 W3        30.02R
EVANSTON, WY   MOCLDY    62  41  46 SE8       30.28S
ROCK SPRINGS   PTCLDY    63  49  60 NE9       30.24R

$$



USA.gov is the U.S. government's official web portal to all federal, state and local government web resources and services.